ATLAS 5 CENTAUR DEB, 43967

Orbit data source: Space-Track

ATLAS 5 CENTAUR DEB, 43967 is space debris in HEO originally from a launch on Wed, 17 Sep 2014 UTC launched from the Air Force Eastern Test Range (AFETR). Debris objects in space refer to the collection of defunct objects orbiting the Earth. Examples of debris include non-operational satellites, rocket bodies, and fragments generated from explosions, collisions, or faulty payload assembly.

Loading next visibility...
Identifier
43967, 2014-055W
Orbit
HEO
Country
Flag of USUS
Related business
Flag of USUnited Launch Alliance/Lockheed Martin (US)
Manufacturer
Unknown
Mission
Spacecraft
Bus & Motor
Unknown
Mass
Unknown
Launch date (UTC)
2014-09-17 (12 years ago)
Launch vehicle
Unknown
Launch site
Air Force Eastern Test Range (AFETR)
Object type
Payload
Rocket body
Debris
Shape & HBR
Unknown shape, 1.1 m
Radar Cross Section
Medium (>0.1 m² and <1 m²)

Expand to show TLE details & history
Last TLE update: 6 days ago

TLE from 6 days ago
0 ATLAS 5 CENTAUR DEB
1 43967U 14055W   26214.26981588 -.00000095  00000-0  00000-0 0  9991
2 43967  20.3386 129.7930 4997185 188.2837 158.6465  1.82853553 52848
Epoch: 2026-08-02T06:28Z
TLE epoch observation values (Epoch: 2026-08-02T06:28:32.092Z)
Latitude
0.00007°
Longitude
81.79321°
Altitude
35,577.289 km
Speed
2.212 km/s
True Right ascension
08h 39m 11s
True Declination
0° 00' 00"
Sunlit
Object was in daylight at epoch
Visualization orbit readout
Latitude
Unknown
Longitude
Unknown
Altitude
Unknown
Speed
Unknown
Apparent Right ascension
Unknown
Apparent Declination
Unknown
Sunlit
N/A
Visualization observer readout
Local Sidereal Time
14:42:33
Azimuth
Unknown
Elevation
Unknown
Doppler factor
Unknown
Orbital elements
Apogee altitude
35,990.041 km
Perigee altitude
7,755.192 km
Semi-major axis
28,250.754 km
Eccentricity
0.49972
Inclination
20.3386°
RAAN
129.793°
Arg. of periapsis
188.2837°
True anomaly
171.71941°
Mean anomaly
158.6465°
Eccentric anomaly
165.71248°
Mean motion
0.45709 °/min
Orbital period
787.6 mins
BSTAR
0
Loading maneuver chart data...
Computing Atmospheric mass density...

Documentation

Showing up to 5 results
|